GFSMA_500_spd_000.txt.gz
Wind_Speed
14 16 16 18 17 17 15 17 19 19 18 17 15 21 22 22 22 21 21 19 19 19 18 16 15 12 10 7 4 3 4 3 4 5 5 2 3 4 5 5 5 4 3
20 21 22 24 24 23 20 19 21 22 23 21 19 18 21 25 25 25 24 22 22 22 21 21 18 16 15 11 8 6 6 5 4 5 5 3 2 2 3 4 4 4 3
23 25 25 23 24 26 26 25 25 24 24 26 26 23 21 22 28 28 27 27 25 24 25 26 23 21 18 15 12 9 8 8 7 6 5 4 3 2 1 2 3 3 3
28 27 25 26 25 27 29 28 28 30 28 28 29 28 26 21 24 31 32 30 29 27 27 28 28 26 24 20 16 13 11 11 9 10 8 6 6 4 3 2 2 2 3
26 26 25 26 25 24 29 32 32 31 33 33 32 31 30 27 25 26 32 36 35 32 29 30 30 30 28 27 23 19 15 14 12 11 10 8 7 6 5 4 3 2 1
26 25 25 24 25 26 28 30 31 33 32 35 37 35 34 32 31 28 28 33 37 38 35 32 32 32 32 31 29 25 22 18 16 14 12 10 9 7 6 6 5 4 3
27 27 28 27 27 27 27 31 31 32 33 35 36 37 37 35 34 34 30 28 32 37 39 37 36 35 35 34 33 30 28 24 20 18 16 14 11 10 8 6 7 5 4
27 27 26 26 27 28 28 28 29 29 32 36 35 38 36 39 40 41 40 33 30 33 36 39 40 39 38 36 36 34 32 29 25 22 19 17 13 11 10 9 8 7 6
31 31 30 30 30 30 32 33 34 34 32 34 36 39 38 36 41 43 46 42 38 35 33 36 39 41 41 40 39 39 35 33 30 26 23 20 17 14 12 11 9 7 8
33 34 36 37 37 37 37 37 37 37 38 35 37 37 38 41 42 44 47 47 46 42 39 35 37 41 43 42 42 41 39 36 34 30 27 25 21 17 14 13 12 9 10
33 35 38 40 40 41 40 38 38 37 39 39 39 40 39 39 43 45 46 48 50 47 43 41 37 37 41 44 42 42 41 39 37 35 32 28 25 22 18 16 16 14 13
35 38 42 39 39 41 39 39 39 37 37 38 39 41 41 41 41 45 48 45 50 49 46 42 38 34 37 40 43 43 43 42 40 38 36 32 28 26 22 20 19 18 17
41 44 45 45 44 39 35 34 34 33 35 38 38 40 42 42 43 45 48 51 52 49 47 44 40 36 34 37 41 43 45 44 43 41 38 36 32 29 27 24 23 22 22
41 44 47 44 40 36 34 29 29 30 33 39 41 42 42 43 45 44 45 45 54 55 52 48 46 43 38 37 39 43 46 45 45 43 40 38 35 32 31 29 28 28 27
36 41 42 37 34 35 36 35 35 38 41 38 42 44 45 43 47 45 46 46 47 53 53 52 49 48 44 41 38 42 45 44 46 46 43 41 39 38 37 36 34 33 32
37 39 36 35 35 35 38 40 39 41 40 38 40 44 46 45 46 48 46 47 46 46 54 54 50 49 46 45 41 39 44 44 46 46 45 43 41 40 37 33 32 31 31
37 39 42 39 37 39 38 38 42 41 40 35 37 43 46 48 48 48 49 49 52 45 51 51 52 51 48 44 45 39 39 45 44 45 43 44 43 41 37 35 34 34 34
41 42 40 40 39 40 41 42 43 40 38 37 37 39 45 48 48 49 50 50 49 47 49 51 52 52 50 47 47 40 38 41 45 47 45 44 44 43 43 42 39 38 38
44 43 45 45 47 45 40 39 38 37 35 37 35 35 40 46 48 49 50 50 50 49 48 51 50 52 50 49 47 44 39 39 41 46 48 46 44 42 42 43 43 39 38
45 47 45 43 40 39 37 38 37 37 35 36 37 36 35 39 46 49 50 50 51 51 49 49 52 54 51 50 48 46 41 40 40 41 45 46 43 42 43 44 39 35 35
46 45 39 42 44 47 43 39 34 35 33 35 35 35 31 35 39 44 48 49 50 51 51 49 49 53 53 49 48 46 45 40 40 40 41 42 38 39 39 39 36 35 34
45 38 44 45 46 43 40 33 35 33 34 34 32 28 26 28 35 40 45 46 49 50 50 52 50 51 51 51 49 47 45 45 41 38 39 39 39 40 37 35 34 33 32
42 44 45 45 44 38 34 31 31 31 34 36 33 28 23 27 29 38 41 44 47 48 48 51 51 49 50 51 53 50 49 46 41 39 40 39 38 37 38 35 33 32 29
46 49 48 42 35 34 34 30 28 31 34 35 34 30 25 28 35 37 38 42 45 46 45 46 46 45 49 50 54 53 52 52 49 50 40 39 38 34 37 35 33 32 29
50 46 44 37 33 31 28 25 27 29 31 33 36 31 24 26 32 33 35 38 41 40 41 43 44 46 48 47 49 51 50 51 52 48 47 39 37 35 36 34 32 34 31
42 39 37 32 26 24 23 27 25 27 28 32 35 32 26 24 25 35 35 33 36 36 38 37 39 43 46 46 45 48 46 49 46 46 49 42 40 37 34 34 34 36 35

GFSMA_500_spd_006.txt.gz
Wind_Speed
18 19 21 22 23 23 20 20 21 20 20 20 19 18 16 13 16 19 19 21 19 19 17 15 14 14 12 9 6 5 4 3 2 4 3 1 3 3 4 3 2 1 1
16 18 20 21 22 21 22 22 22 23 23 24 23 22 22 19 15 16 21 22 22 22 20 19 19 17 15 14 11 8 6 5 3 3 3 2 1 1 3 3 3 3 2
17 18 18 20 19 20 20 21 21 23 23 25 26 28 26 25 22 20 19 22 26 25 24 23 22 22 20 17 16 12 10 8 6 5 5 4 3 2 1 2 2 3 3
18 18 23 22 22 20 19 21 22 24 27 25 24 29 32 30 26 22 23 22 24 29 27 25 24 24 23 22 20 17 14 10 9 8 7 5 5 4 3 2 0 2 2
18 19 20 22 23 23 22 22 21 22 22 26 27 28 28 31 31 29 26 26 25 25 30 29 27 26 24 25 25 22 19 15 12 10 9 10 7 5 5 4 3 2 1
18 17 19 19 22 25 26 27 28 29 28 26 25 27 28 28 28 29 31 29 29 29 27 31 32 29 28 27 27 26 24 21 17 13 12 11 11 9 7 6 5 5 5
18 20 21 22 24 26 27 29 31 31 32 33 29 27 27 27 30 31 31 32 32 32 32 30 30 35 33 30 27 27 28 27 24 20 16 14 13 12 10 8 7 6 6
22 22 23 24 25 27 29 30 32 31 32 35 35 33 28 29 30 32 35 34 34 35 35 34 32 32 36 36 33 31 30 30 28 25 23 19 17 15 13 12 11 9 8
25 24 24 26 28 29 30 33 36 34 32 34 35 35 35 30 32 33 33 36 36 35 37 37 37 33 33 36 37 37 34 32 32 30 28 25 21 19 17 16 14 12 11
27 26 27 27 28 29 31 32 35 37 34 32 33 34 34 33 34 33 37 36 37 37 38 42 42 39 36 34 35 37 38 37 36 34 32 30 28 24 22 20 18 16 13
28 29 31 31 31 33 33 35 36 37 39 35 33 33 33 31 30 31 32 37 39 39 33 43 46 42 42 40 36 36 38 41 41 40 37 35 33 31 27 24 23 20 18
30 28 32 33 33 34 34 36 37 37 41 40 36 35 32 31 30 31 30 33 39 41 46 44 44 35 40 49 43 37 37 39 43 43 41 39 38 35 34 29 27 24 22
33 33 33 35 35 36 36 38 38 39 40 41 39 37 36 36 37 37 36 34 38 39 46 45 46 49 43 32 43 44 40 38 40 44 44 42 41 40 38 36 31 29 27
36 36 36 37 37 37 37 40 40 40 41 42 43 45 43 42 40 40 44 43 39 41 45 44 50 51 58 39 43 50 45 43 42 42 44 44 42 42 42 41 37 34 32
37 38 39 39 38 39 39 42 42 41 42 44 45 46 47 44 45 46 46 48 46 42 45 45 51 52 54 45 44 43 43 41 41 42 42 44 44 43 43 43 42 39 36
38 39 39 38 39 39 41 42 42 42 44 47 46 46 47 46 46 48 47 47 49 48 44 46 48 50 53 55 54 44 37 34 45 41 36 38 41 43 43 44 44 43 40
38 40 40 39 41 41 43 43 44 46 48 48 49 52 50 51 48 47 46 48 48 48 48 43 49 49 54 54 50 56 47 49 41 39 35 35 37 41 43 44 45 45 43
38 40 41 42 42 43 42 44 47 49 50 50 53 53 51 46 46 46 44 45 47 49 48 44 47 50 53 53 53 49 53 48 52 50 44 40 38 38 42 44 44 45 44
40 42 43 43 43 43 43 47 48 51 53 54 52 49 44 41 41 41 42 42 44 46 50 45 45 49 51 54 54 55 52 58 60 36 44 38 40 36 41 43 44 45 44
44 44 44 43 43 43 46 47 48 50 50 50 46 42 39 35 35 36 39 42 42 43 47 45 43 47 50 50 51 55 53 53 52 49 35 39 40 37 38 42 43 45 44
47 47 45 44 44 46 47 45 45 45 46 41 39 38 37 35 35 37 38 38 40 38 42 46 43 45 47 49 49 48 50 45 52 47 46 41 38 37 35 39 42 41 43
50 50 47 43 44 44 44 46 44 42 39 37 35 32 34 36 37 39 43 42 42 41 44 44 42 43 45 46 45 46 46 43 46 47 43 39 38 38 37 36 39 41 42
54 51 46 46 45 41 44 43 43 39 34 31 31 31 33 37 41 43 44 40 45 37 40 36 40 41 44 51 37 45 46 41 39 43 48 39 40 40 38 36 36 39 41
52 53 52 39 48 44 43 42 42 36 35 32 27 29 36 39 41 43 45 44 42 40 44 41 36 40 42 41 43 41 45 44 46 47 48 40 41 40 40 36 36 35 39
54 49 44 48 49 43 38 40 41 35 26 28 29 32 37 37 41 44 45 45 36 29 32 32 33 37 39 39 41 40 44 45 41 43 44 40 40 38 38 33 36 36 39
52 48 47 47 45 41 38 40 28 20 28 25 31 32 34 38 41 40 47 22 25 27 27 32 28 32 36 35 38 39 42 43 43 43 40 41 40 38 41 42 36 34 35

GFSMA_500_spd_009.txt.gz
Wind_Speed
15 16 16 15 16 15 15 15 13 15 15 16 17 17 18 17 15 12 16 17 16 15 14 13 14 13 12 9 5 3 3 3 1 3 3 2 2 3 4 4 3 2 2
15 16 17 19 18 17 15 15 17 16 16 17 19 19 19 21 21 17 15 18 20 20 18 17 16 16 14 13 11 8 6 4 3 3 5 4 0 1 2 3 3 3 3
12 15 17 17 17 17 18 17 17 18 19 19 20 19 19 22 24 24 21 19 20 22 22 20 19 18 18 17 15 13 10 7 6 5 6 6 3 2 1 2 2 2 4
14 14 16 17 17 18 18 19 19 18 19 20 20 22 22 20 22 25 27 23 22 22 23 24 22 21 21 21 19 17 15 12 9 7 8 7 6 5 4 4 3 2 4
13 12 14 15 16 18 19 20 21 22 22 22 19 19 21 24 24 23 27 30 25 24 24 24 27 24 24 23 24 22 20 17 14 10 9 9 9 7 7 6 5 4 4
11 12 14 14 15 18 19 22 24 26 24 23 23 23 23 21 23 26 24 29 31 28 26 27 26 28 27 26 25 25 24 22 20 16 12 10 9 10 9 8 7 7 6
16 15 15 16 18 19 20 21 23 26 28 28 23 22 25 25 22 23 26 27 29 30 31 29 29 27 30 30 29 28 26 26 25 22 19 15 11 11 11 10 9 8 8
19 19 19 19 20 20 22 23 25 26 28 29 29 25 23 27 25 26 26 27 30 31 31 33 33 32 31 31 34 33 30 27 28 27 25 22 17 15 14 13 12 10 9
24 23 23 23 24 25 25 25 26 28 29 31 31 29 26 23 23 28 27 30 30 32 33 33 36 35 36 35 33 37 36 34 31 30 29 27 24 20 18 17 16 14 13
24 25 26 27 28 29 30 30 30 31 31 32 32 33 32 29 26 21 27 28 32 33 36 36 36 40 36 36 36 35 41 40 37 34 33 31 29 27 23 21 20 18 16
26 27 30 31 32 33 33 33 34 35 35 35 34 34 33 33 32 28 22 27 25 31 37 41 41 38 35 31 41 40 40 43 43 40 37 36 33 31 30 26 24 22 19
27 28 30 30 32 33 34 34 35 36 37 38 37 36 34 33 35 35 31 29 28 32 32 37 41 41 44 42 49 46 41 43 45 44 42 40 38 36 34 32 29 27 24
30 30 32 32 32 34 34 35 36 37 39 39 38 39 38 38 39 38 37 34 34 34 36 37 36 43 46 45 46 46 52 50 47 44 45 45 43 41 39 37 35 32 29
32 31 33 32 33 34 35 36 38 39 40 39 39 40 40 41 43 43 41 39 37 39 38 39 42 40 44 48 49 56 51 53 50 41 41 43 45 44 42 41 40 39 36
32 32 32 33 34 36 37 37 38 40 40 41 41 41 42 44 44 46 48 47 42 42 40 44 43 46 44 47 53 51 53 60 42 47 43 41 45 45 46 45 44 43 41
32 33 34 34 36 36 37 38 40 41 39 42 44 44 45 45 48 51 51 50 50 47 43 44 45 47 49 44 50 53 55 54 51 46 46 47 44 45 46 48 47 45 45
31 32 33 36 36 38 39 40 42 42 43 44 45 45 45 45 50 50 49 49 49 50 48 43 45 45 49 46 50 51 56 54 55 47 44 46 44 42 42 45 50 48 46
32 34 36 37 40 41 43 44 44 43 44 44 45 43 45 48 47 41 39 40 41 45 48 42 40 44 45 47 49 52 52 52 57 43 48 54 51 47 37 40 47 48 47
33 36 36 39 43 45 44 43 44 43 45 45 47 48 48 47 40 35 34 36 37 38 43 44 42 41 44 46 45 51 50 54 57 55 50 48 39 45 35 34 40 45 46
35 38 40 43 47 48 47 48 41 43 43 45 46 45 45 41 36 33 33 34 34 37 39 41 44 41 43 47 46 49 52 51 51 54 55 50 46 41 40 40 38 43 42
39 42 45 47 50 51 47 39 43 43 43 44 43 40 39 36 34 33 32 34 38 41 40 38 40 43 44 45 47 47 51 49 52 56 50 52 49 38 46 44 41 39 39
43 45 50 52 52 52 46 39 48 45 44 45 41 38 35 34 33 33 35 36 41 43 43 41 38 42 44 44 46 47 50 50 52 56 51 47 55 56 40 40 42 39 38
46 48 52 53 53 50 45 45 44 43 43 42 43 36 31 32 34 38 34 34 41 46 46 49 38 34 39 46 47 48 49 50 49 49 54 47 48 44 47 44 41 38 36
48 51 51 52 52 49 45 46 40 42 41 40 31 31 30 29 35 36 33 37 38 47 50 42 40 37 31 38 45 48 47 48 46 49 52 47 47 44 44 42 40 38 35
52 54 52 51 50 46 46 41 38 38 36 25 28 32 30 34 34 36 37 34 42 46 36 37 40 34 34 31 40 45 44 45 45 47 49 44 45 45 43 41 41 37 35
51 54 50 49 47 47 44 44 41 39 36 32 32 32 33 32 36 35 36 35 38 38 32 34 37 30 25 32 38 43 43 41 41 48 47 41 45 44 47 43 40 38 37

GFSMA_500_spd_015.txt.gz
Wind_Speed
6 6 7 7 8 9 9 10 11 12 12 11 11 12 12 12 13 16 18 16 13 14 16 16 17 16 12 11 8 6 5 5 5 5 4 0 1 1 2 2 3 2 2
7 6 7 7 8 9 10 10 11 11 10 12 10 10 11 12 14 15 19 19 18 16 16 18 19 19 16 14 13 11 8 7 6 6 6 5 2 2 2 3 2 3 2
7 6 8 9 9 10 11 11 12 13 15 14 14 15 14 13 13 14 15 20 23 21 19 18 20 21 19 18 17 15 14 11 9 8 8 8 7 5 4 3 2 3 4
7 7 6 9 11 12 14 14 14 15 16 17 18 17 17 17 15 15 16 17 21 25 24 22 20 24 24 23 22 19 17 16 14 12 11 11 11 8 7 6 5 4 5
6 8 8 8 10 12 13 15 15 16 17 17 19 20 20 19 17 17 17 16 19 21 27 27 24 24 27 27 26 24 22 20 19 17 15 15 13 12 11 10 8 7 7
7 8 10 11 13 14 14 16 18 18 19 19 21 23 22 21 20 18 18 17 19 19 22 28 29 27 26 29 29 28 26 26 24 22 20 18 17 16 14 13 12 11 10
6 7 8 10 12 14 17 18 20 21 20 20 21 23 24 24 23 22 20 20 18 20 22 24 28 31 33 30 28 31 31 29 30 28 26 23 20 20 19 16 15 14 14
11 12 14 13 14 15 16 18 20 23 25 24 22 23 25 26 25 23 22 21 21 19 21 24 28 29 31 31 31 31 33 33 33 33 31 29 26 24 22 21 19 17 17
16 16 17 19 20 21 21 21 21 23 25 26 25 23 24 26 28 27 24 22 22 21 21 20 25 29 31 33 34 35 34 36 37 35 35 34 32 29 26 24 24 22 20
20 22 22 22 22 23 24 23 24 24 26 28 26 24 24 24 27 30 30 25 23 24 24 24 25 26 31 34 37 40 39 38 38 41 40 38 37 35 33 28 27 26 24
21 22 23 24 24 24 25 24 24 27 30 31 29 27 26 27 25 25 28 30 29 27 28 28 29 30 28 32 38 40 45 42 40 41 44 43 41 39 37 35 31 28 28
24 24 24 25 26 26 27 27 27 28 31 31 30 30 30 30 30 26 24 26 30 34 36 33 31 32 34 34 34 39 45 47 46 45 46 46 47 43 41 39 37 34 31
25 27 27 28 28 27 26 26 28 30 31 30 31 31 31 32 31 29 26 28 29 33 36 38 38 36 35 36 39 39 39 44 47 52 48 49 49 50 45 43 42 41 37
28 30 30 29 27 25 25 27 31 32 32 32 34 34 35 34 33 33 33 32 32 32 36 40 42 42 41 43 41 43 44 43 45 49 52 53 53 52 51 48 46 45 42
28 31 31 30 28 28 28 30 31 33 33 34 36 36 34 33 37 39 39 39 41 36 34 39 42 45 46 46 45 46 47 47 47 51 53 50 54 53 54 54 51 48 46
30 31 30 29 28 28 30 32 33 35 35 35 36 39 36 35 39 42 43 41 40 41 40 40 43 44 46 47 48 49 49 50 52 51 50 51 53 56 55 53 56 52 51
33 30 29 27 29 31 34 35 36 36 38 40 39 40 40 38 44 46 43 44 44 45 43 39 37 37 38 39 41 45 50 52 51 55 54 52 59 57 56 56 55 56 55
32 30 29 29 30 33 35 38 38 39 39 40 39 40 41 43 42 43 43 44 46 47 46 36 32 33 36 41 42 41 42 49 57 55 56 58 58 63 57 60 58 57 56
31 31 31 32 34 35 37 39 40 40 40 40 40 42 43 43 43 43 44 48 50 48 45 36 33 36 36 39 41 40 42 42 51 59 58 59 60 60 62 59 58 61 56
34 34 34 36 38 38 40 41 43 42 42 41 40 41 40 40 40 42 45 49 47 43 37 35 36 36 38 41 42 44 45 46 44 52 61 58 62 62 61 64 60 58 59
39 41 37 36 41 42 40 43 48 48 47 43 40 39 36 38 42 45 49 44 37 36 34 36 39 37 37 41 43 47 49 53 49 50 56 59 60 62 58 63 62 59 52
45 41 36 38 42 42 37 43 45 50 39 42 34 31 35 40 44 48 50 42 44 44 41 42 40 40 41 43 46 46 48 48 51 53 54 58 60 63 59 63 61 57 56
54 39 39 42 44 42 40 45 46 44 45 29 31 34 37 42 46 46 47 45 39 40 39 39 40 39 43 47 46 38 39 44 48 48 53 54 61 61 59 62 60 55 54
46 49 41 46 44 43 41 44 43 37 30 42 42 40 38 44 45 46 43 39 38 40 38 37 38 42 45 50 49 32 35 41 48 48 50 51 58 57 58 60 57 57 56
54 50 43 47 49 41 42 37 43 42 45 47 44 42 42 44 44 45 42 35 35 34 37 36 37 44 48 51 46 38 41 41 49 50 46 51 54 55 57 60 60 56 54
52 54 45 53 49 42 39 42 42 46 46 49 51 48 45 42 43 42 34 36 30 31 34 32 32 39 47 48 49 47 49 34 38 42 47 51 53 55 55 59 61 60 57

GFSMA_500_spd_021.txt.gz
Wind_Speed
6 7 9 9 10 10 10 11 12 13 13 13 13 13 12 11 12 12 12 13 14 15 17 16 20 20 18 17 14 12 11 9 10 10 8 6 6 7 8 8 7 6 6
5 4 6 8 9 9 10 10 10 10 10 12 13 13 13 14 13 13 12 13 14 15 16 19 19 20 17 19 18 16 14 12 11 12 12 10 8 7 8 8 7 7 7
5 6 5 5 7 8 10 10 10 11 12 11 11 12 12 12 13 13 14 14 13 16 16 17 20 21 19 19 22 20 19 17 14 13 12 13 12 10 9 10 8 8 7
8 7 7 8 9 10 11 12 12 12 13 14 14 13 12 13 12 13 12 13 14 15 17 18 19 21 22 21 22 25 23 21 19 16 15 14 14 14 12 11 9 9 9
8 10 9 11 11 11 12 11 10 10 11 13 14 14 14 13 11 12 13 13 13 15 14 15 18 19 21 24 26 23 27 24 23 21 19 17 15 16 15 14 13 11 10
9 9 11 11 12 12 12 14 14 15 16 16 15 14 15 14 14 12 11 13 15 12 13 13 13 16 19 21 24 25 23 29 27 26 24 22 20 17 18 17 15 14 13
11 12 12 13 14 15 15 15 15 16 17 18 16 15 15 16 14 14 14 14 13 14 13 13 13 13 14 18 21 25 27 29 29 30 29 27 25 22 19 20 19 18 16
11 12 13 14 16 17 17 16 15 15 15 16 17 18 17 16 15 14 15 17 17 15 14 13 12 14 14 15 17 22 25 28 32 26 35 32 29 27 24 22 22 21 21
14 15 16 17 17 18 18 16 15 15 14 15 18 20 20 17 15 17 18 18 18 19 17 16 14 13 16 18 19 20 22 27 30 34 31 36 36 33 30 27 24 24 23
16 16 17 18 19 19 18 17 16 16 14 14 17 18 20 21 20 19 17 18 18 18 18 17 18 19 19 20 22 23 24 26 29 30 33 33 36 39 36 33 31 27 26
17 17 17 18 19 19 18 16 15 15 14 15 18 18 18 22 23 22 23 21 17 19 17 18 21 23 24 24 25 27 27 27 30 31 33 37 38 36 39 40 37 33 30
19 19 18 19 20 19 18 16 16 16 16 16 18 21 20 20 21 22 25 26 23 22 28 28 26 26 25 26 27 30 31 31 31 33 34 37 39 40 39 37 43 39 36
21 22 19 19 19 20 20 19 19 19 19 19 20 22 23 24 24 23 23 26 26 29 32 32 33 30 28 28 28 30 33 37 38 37 37 38 39 42 45 42 42 43 41
26 26 24 21 21 22 22 21 20 23 23 22 23 23 24 25 27 28 26 25 27 30 33 37 37 34 34 35 34 32 33 36 39 43 44 42 43 43 45 47 47 48 46
25 24 25 26 26 25 23 22 23 25 27 26 25 26 28 27 29 31 30 28 29 28 32 38 41 43 42 43 42 40 38 38 41 45 47 49 49 48 47 48 52 51 51
28 26 26 25 28 27 25 24 25 26 29 29 28 29 30 33 34 33 33 29 27 29 33 34 40 44 47 48 48 46 44 45 45 45 48 52 54 54 52 51 52 55 55
30 30 27 25 31 30 28 28 28 29 26 32 31 32 32 30 35 34 34 31 31 35 36 37 43 46 49 52 54 49 44 44 43 46 48 48 53 57 57 56 55 54 57
35 33 32 26 29 34 36 33 33 32 32 30 30 35 29 26 25 31 31 36 41 40 42 45 43 49 50 56 49 45 39 38 40 45 47 45 46 51 56 59 59 58 59
56 44 34 29 19 26 35 33 37 34 32 28 31 36 36 37 39 40 39 40 40 42 45 47 49 49 49 48 48 42 40 38 38 40 44 47 48 47 51 55 61 62 61
28 24 29 30 29 29 32 32 35 38 35 33 36 35 36 42 40 37 38 39 45 46 45 49 50 51 49 46 48 42 38 42 42 42 43 46 48 50 52 54 58 63 65
40 21 27 28 24 25 35 35 42 39 33 35 34 33 39 35 34 39 37 42 44 46 45 51 52 49 47 47 44 42 42 39 38 41 45 48 51 50 52 56 59 60 65
31 30 28 27 22 24 31 34 37 28 37 36 36 37 35 32 36 40 42 44 46 45 47 50 49 47 46 40 41 41 39 40 37 38 42 45 56 54 53 54 56 59 61
33 31 26 27 25 24 31 37 34 32 36 39 32 32 30 37 44 45 42 47 47 48 50 47 45 45 41 39 34 36 39 39 35 39 46 46 57 59 58 57 55 52 58
33 33 29 28 31 24 31 35 35 35 34 32 33 28 37 44 47 46 46 48 49 49 47 48 45 41 40 37 32 38 36 38 40 46 53 47 53 59 63 60 55 53 55
32 33 34 35 35 28 32 34 32 39 31 28 29 33 44 51 48 51 48 49 48 49 46 45 43 41 39 36 36 40 39 42 44 47 50 41 49 55 58 55 52 50 52
31 34 34 35 36 33 35 36 26 34 42 29 34 44 41 44 47 48 49 48 46 47 43 42 43 41 39 39 40 41 40 43 47 48 42 44 39 41 43 46 49 51 51

GFSMA_500_spd_024.txt.gz
Wind_Speed
7 8 9 9 9 10 10 10 10 11 12 11 12 11 10 11 11 9 8 8 7 10 14 15 17 18 22 21 18 15 13 11 10 10 9 6 5 6 7 7 7 6 5
6 6 8 7 8 8 8 9 9 9 10 10 11 11 11 10 9 9 9 9 9 8 9 13 15 18 19 19 22 19 16 14 12 12 12 10 9 8 8 9 9 8 7
6 4 5 6 5 5 6 9 9 11 11 11 10 10 11 12 12 11 10 8 8 9 9 11 12 15 17 18 15 22 21 19 16 14 14 13 13 11 10 10 10 10 10
6 5 6 5 5 7 9 9 10 12 13 13 13 12 12 12 12 12 12 11 10 9 9 8 10 11 14 17 18 19 22 25 22 19 17 15 13 14 13 11 11 11 11
6 7 7 6 7 9 10 12 13 14 13 14 14 13 14 14 13 13 12 13 12 12 10 9 9 9 11 13 16 19 21 21 28 24 22 19 16 15 16 14 13 13 12
6 7 8 9 9 12 12 14 14 16 15 15 15 15 14 15 15 14 13 13 15 13 12 12 10 9 10 11 13 17 20 21 25 28 25 24 21 18 17 18 16 16 15
7 8 10 12 12 13 14 15 16 16 16 16 15 15 15 15 15 15 14 14 14 16 14 14 14 11 9 10 11 14 18 19 20 19 31 27 27 24 21 19 20 19 18
13 12 12 12 14 14 15 16 17 17 16 16 13 14 16 16 14 13 14 17 18 16 16 16 15 15 13 13 12 14 15 18 22 22 23 30 32 30 28 25 22 21 21
17 16 16 14 14 15 15 15 17 17 14 14 13 12 14 15 14 14 14 15 18 19 17 18 17 15 16 16 16 17 18 20 20 23 24 27 26 35 33 30 28 25 24
19 18 17 16 15 16 16 16 18 17 15 14 14 14 14 13 15 15 16 14 16 18 18 15 16 19 20 21 20 19 20 22 24 25 24 28 31 30 36 34 33 31 29
15 17 17 16 17 16 16 17 17 17 17 17 17 16 17 17 15 16 16 15 15 16 18 17 19 21 24 25 25 25 23 23 24 28 29 29 29 30 32 38 39 37 36
15 17 20 20 20 20 17 16 17 17 17 17 18 18 18 19 21 20 19 19 19 18 19 21 22 22 23 26 26 26 27 26 26 27 31 33 33 33 36 35 38 44 42
21 23 22 23 22 20 21 19 18 18 18 17 19 21 20 21 20 21 23 25 26 26 22 24 26 27 24 25 26 28 29 32 33 32 31 33 36 37 38 40 40 40 42
24 23 25 28 25 24 23 23 21 21 20 20 21 22 23 23 23 23 24 27 28 28 24 23 25 28 30 30 33 32 31 32 35 36 37 38 37 40 42 43 43 45 45
24 26 30 30 25 27 26 26 24 23 22 23 24 25 25 24 26 26 26 25 27 26 28 26 29 32 33 36 40 39 40 42 40 38 38 41 44 44 45 47 48 47 50
29 37 39 34 33 30 29 29 26 25 26 26 27 30 31 28 27 23 25 25 24 27 28 29 33 36 39 41 43 44 49 48 46 41 40 47 51 50 50 51 53 52 51
29 39 47 39 39 37 29 31 32 32 30 28 29 32 36 32 29 26 24 28 31 30 29 35 37 40 39 45 45 49 50 48 42 38 41 47 50 51 52 52 54 56 55
32 35 43 38 31 23 24 22 25 30 30 31 34 34 31 34 30 34 33 35 40 35 34 33 36 42 45 45 48 52 52 48 39 37 40 42 43 44 49 51 51 55 59
32 35 39 12 21 16 20 35 31 27 30 34 32 35 34 39 41 39 38 42 37 34 33 36 42 45 46 47 49 54 52 45 42 41 41 43 46 46 46 48 50 52 56
35 30 23 21 23 21 23 28 25 29 34 35 37 34 30 38 42 41 40 40 33 33 38 45 48 49 48 49 51 49 47 44 42 40 40 44 45 47 47 46 48 52 54
34 33 27 24 27 25 25 25 29 28 27 33 35 33 31 32 37 39 36 32 37 42 46 47 47 49 50 49 45 45 42 41 41 43 42 42 45 46 48 52 49 52 56
32 28 28 26 28 25 21 22 24 28 33 40 37 35 33 32 33 33 30 36 41 43 42 46 49 49 50 49 46 43 42 43 39 36 40 36 39 38 41 47 53 55 56
36 33 29 29 28 27 27 28 32 31 31 33 35 31 36 34 34 29 32 40 47 44 46 50 49 48 49 48 44 43 43 41 39 36 38 37 40 42 45 50 56 59 54
41 36 30 30 28 28 32 31 30 30 30 31 32 33 35 34 31 25 36 49 47 47 47 48 49 49 49 49 46 43 40 40 39 41 44 41 45 46 53 57 60 59 55
35 35 35 31 34 30 34 35 36 34 32 32 31 31 37 40 39 43 43 44 49 48 47 48 47 47 48 47 45 41 40 38 40 40 43 42 46 52 49 48 53 58 59
39 39 40 37 36 34 32 37 39 36 34 36 34 37 38 43 45 42 51 49 50 49 49 48 45 46 43 42 42 40 41 40 39 40 38 45 47 51 36 33 39 47 50

GFSMA_500_spd_030.txt.gz
Wind_Speed
6 6 6 7 7 5 6 11 7 7 8 8 9 10 11 13 14 15 12 10 11 12 11 9 8 11 12 12 13 14 12 15 13 9 8 7 4 1 1 2 3 2 2
4 2 2 5 5 6 6 7 7 7 7 8 8 9 11 11 12 10 8 10 10 11 12 12 10 11 12 13 15 16 16 15 15 12 9 9 8 5 3 2 3 4 4
2 1 1 4 6 7 6 8 9 10 10 9 8 12 11 12 12 13 11 6 9 10 10 12 12 13 12 12 14 14 15 14 14 13 12 11 11 10 8 6 4 5 5
3 2 3 4 5 7 8 10 11 13 13 13 13 12 12 11 12 13 12 11 6 8 11 11 12 11 13 13 13 13 13 10 16 18 18 15 14 13 12 10 8 7 6
3 3 5 7 10 10 11 11 12 13 14 16 15 14 14 12 13 13 12 11 11 8 10 11 11 12 12 12 13 12 13 13 10 13 21 21 18 16 15 12 12 10 9
4 6 8 10 12 13 14 14 16 16 15 16 16 16 16 13 13 13 12 11 12 13 12 12 10 13 13 12 10 11 10 10 10 11 11 9 24 21 18 16 14 14 12
7 8 10 13 13 16 15 16 16 17 16 17 16 14 16 17 15 14 11 11 12 13 13 15 13 13 13 12 10 11 13 12 10 12 15 14 14 27 21 20 18 17 17
11 13 14 14 16 16 16 18 20 19 18 20 18 16 13 14 16 17 14 12 10 11 13 15 12 12 9 8 12 12 13 15 15 13 14 15 16 15 24 24 23 22 20
15 15 15 16 16 17 19 20 22 23 21 22 20 18 17 16 15 14 18 16 13 11 11 14 13 10 11 9 10 11 13 15 16 17 16 14 15 15 17 20 28 29 27
14 13 13 14 17 19 21 22 24 25 24 23 23 21 20 20 18 17 13 20 19 17 14 14 15 14 12 12 12 12 12 14 13 16 18 18 17 16 18 18 18 26 31
11 12 14 16 18 18 18 20 26 27 27 25 25 23 22 23 23 21 21 17 18 21 22 18 17 17 17 15 17 15 15 13 13 14 15 16 18 19 19 19 19 21 22
9 11 16 21 23 23 26 29 34 32 29 27 25 25 24 23 23 24 24 22 25 23 19 23 23 21 19 19 18 19 16 16 17 17 18 18 18 18 20 21 20 20 20
6 12 19 22 24 25 30 37 38 34 32 31 26 24 24 24 24 25 24 25 24 26 28 25 26 24 23 18 17 21 22 21 23 23 23 23 22 21 23 23 23 23 22
7 12 16 20 22 27 26 30 31 31 26 32 27 25 23 22 24 25 26 26 27 30 33 31 30 24 23 25 22 23 23 25 27 28 29 32 33 33 32 29 26 23 26
12 15 18 21 24 22 22 27 29 34 30 29 32 27 24 25 25 26 27 29 27 32 35 35 33 27 20 25 29 30 30 31 30 30 31 33 36 38 40 39 37 35 33
10 16 19 20 24 21 21 26 23 33 32 25 24 26 28 27 28 28 30 32 33 32 31 36 36 35 33 34 31 31 34 34 34 34 36 40 44 48 48 44 44 44 44
14 14 16 20 21 21 29 27 29 30 31 30 26 26 31 32 34 31 33 35 36 34 34 38 36 40 38 40 42 43 39 36 39 40 43 48 51 50 45 44 46 48 48
17 21 21 23 25 23 24 25 30 32 30 30 30 29 32 36 33 34 38 42 41 35 31 34 40 43 39 37 35 34 34 39 43 46 48 49 49 49 47 48 49 52 53
17 21 25 29 29 28 31 32 31 33 33 33 29 27 28 30 32 36 37 38 44 38 38 36 37 37 37 36 32 37 38 41 46 46 47 49 47 47 48 50 55 58 55
17 21 24 27 34 37 37 40 33 34 33 33 31 34 32 35 35 35 38 38 41 43 41 39 33 33 33 35 35 38 38 40 43 44 45 49 50 53 53 52 54 55 48
23 25 27 33 37 39 36 39 34 34 35 32 33 36 38 38 36 37 41 40 38 43 43 46 44 41 37 36 35 34 38 44 49 49 48 48 50 52 53 55 48 44 46
25 28 31 34 38 43 45 39 39 36 35 34 37 37 39 39 37 39 40 41 43 43 44 42 50 50 46 42 43 42 44 49 50 50 52 51 52 52 51 49 47 46 44
27 29 33 37 42 45 47 44 43 42 44 37 40 44 41 41 39 40 42 42 39 42 49 50 48 49 50 50 45 42 48 47 49 48 49 48 46 50 49 46 45 46 45
29 33 36 41 46 51 52 53 52 46 44 45 42 42 43 45 40 42 45 44 44 48 49 50 50 46 54 54 53 53 48 47 45 46 45 46 45 45 42 41 42 45 45
34 38 41 42 46 52 57 57 54 46 48 49 44 41 44 44 43 43 44 43 42 50 54 51 52 54 54 55 58 58 51 49 47 44 41 42 41 40 41 38 41 41 41
41 40 43 47 50 54 54 58 56 48 47 45 45 44 42 43 44 45 49 44 48 53 49 50 53 54 55 56 55 54 51 49 47 44 42 43 42 39 38 38 39 38 40

GFSMA_500_spd_033.txt.gz
Wind_Speed
7 7 8 9 9 7 8 9 12 13 12 15 15 15 16 14 12 10 8 11 10 10 11 10 8 8 8 9 11 11 11 10 11 11 7 6 4 1 1 1 2 3 3
5 4 7 7 7 8 8 10 10 10 12 14 15 13 13 13 11 11 11 10 10 11 10 9 9 10 10 9 10 13 14 13 13 13 11 8 8 5 2 2 3 3 3
3 5 6 8 9 11 11 10 10 10 10 10 14 17 16 15 14 11 8 10 10 10 10 10 9 10 10 12 10 9 10 13 14 17 12 11 10 9 8 6 4 4 5
5 4 4 6 9 11 12 12 12 13 12 11 10 11 12 12 12 13 11 6 8 9 9 11 10 9 9 10 11 10 9 13 6 9 13 13 13 11 11 10 8 6 5
3 3 5 6 7 10 12 13 13 13 14 14 11 11 11 12 11 12 12 9 5 8 10 11 12 11 11 9 9 8 9 8 8 4 10 16 19 17 14 12 12 10 8
5 6 9 11 13 13 13 14 15 15 15 14 14 13 11 10 11 11 11 11 8 8 10 11 12 11 11 11 7 8 9 9 7 6 5 5 6 21 20 17 14 13 12
7 8 9 12 12 14 14 15 16 19 20 18 17 16 15 12 12 12 13 10 12 10 10 10 12 11 9 9 6 7 8 9 10 8 8 8 9 9 21 22 18 16 15
9 10 11 12 12 14 15 16 18 20 23 22 20 18 15 18 16 14 14 13 9 13 9 11 11 11 12 10 6 6 8 9 10 11 12 12 11 10 10 21 19 20 20
10 8 7 8 11 14 15 17 19 19 22 27 24 20 17 15 14 16 17 14 13 10 13 10 11 13 11 13 12 11 10 11 9 8 9 10 12 10 8 10 15 17 27
8 7 7 8 11 14 17 19 22 21 24 23 26 22 20 17 14 13 15 17 17 13 15 12 11 11 14 13 14 13 13 13 11 10 10 9 8 9 8 8 12 16 13
5 6 5 11 13 17 19 24 27 32 32 25 23 24 22 21 19 16 15 15 16 20 18 17 17 15 15 18 16 16 17 16 14 12 11 11 11 12 11 12 11 12 14
5 3 7 12 17 20 22 24 25 30 29 19 27 24 21 21 20 20 18 18 18 16 16 19 22 23 21 21 23 20 17 17 15 14 12 12 13 12 11 12 12 11 12
4 6 10 14 17 20 20 21 27 32 31 28 24 22 18 19 19 20 22 22 23 22 22 19 19 21 25 20 22 24 22 20 20 16 16 16 15 15 13 14 16 16 15
3 9 11 16 18 20 18 18 27 26 32 33 31 21 18 23 22 22 22 24 24 25 28 27 28 26 21 24 20 21 25 26 25 24 23 22 22 22 22 23 23 23 21
8 10 12 14 17 18 21 21 24 25 28 31 31 29 22 16 20 22 22 26 30 29 29 31 33 32 31 27 28 25 24 25 26 27 27 26 28 30 29 31 32 33 33
11 9 13 14 15 18 20 20 24 29 30 28 29 31 25 22 27 30 31 29 26 28 33 35 35 30 32 34 33 33 31 33 35 35 33 34 36 35 36 38 38 38 33
8 11 13 14 15 18 21 25 29 33 33 31 28 28 27 25 24 23 25 26 28 29 30 32 34 33 28 32 34 36 36 35 34 36 38 39 40 39 39 41 38 36 34
6 9 13 14 16 19 27 31 31 32 32 29 32 28 27 27 29 29 29 29 28 30 29 29 33 37 37 37 34 35 38 37 33 34 35 39 40 43 41 34 32 34 35
7 9 10 14 18 22 25 30 36 34 34 33 33 30 30 32 33 34 34 32 34 34 34 31 33 38 38 40 40 37 35 31 34 33 34 33 35 38 37 37 37 41 41
11 10 10 14 19 22 26 32 33 34 36 38 36 34 36 37 38 38 37 36 37 37 36 36 37 38 39 42 40 42 44 42 39 39 37 38 38 39 42 43 43 43 45
15 17 16 17 19 24 28 33 36 38 41 45 39 36 36 39 41 45 45 42 43 39 38 39 37 38 38 43 48 45 44 44 45 44 48 44 45 48 48 49 51 52 49
16 15 17 18 22 27 31 34 39 41 43 45 44 34 38 40 42 45 45 45 43 41 41 42 41 43 40 47 49 48 47 46 48 54 61 54 47 47 48 50 51 50 50
21 19 18 21 25 31 33 39 42 45 45 49 50 43 39 40 41 41 41 43 44 43 44 43 41 41 46 52 49 50 50 49 51 48 57 55 50 50 48 48 47 48 47
21 22 24 27 30 33 34 39 45 51 51 50 52 53 44 41 39 39 41 41 40 43 48 47 49 49 51 53 54 54 52 54 52 51 54 50 42 44 43 44 46 46 45
22 25 30 32 36 36 38 43 48 53 58 58 55 50 42 40 42 41 39 42 44 46 50 50 50 54 53 51 55 53 54 54 49 46 46 51 45 44 43 43 45 45 44
26 30 36 39 39 33 42 42 50 54 54 55 52 44 42 42 44 46 46 46 45 50 52 48 49 53 54 54 55 55 50 49 49 46 42 45 42 44 43 42 44 45 45

GFSMA_500_spd_036.txt.gz
Wind_Speed
8 9 8 10 10 11 10 12 11 10 11 11 9 10 13 13 13 11 11 10 11 10 7 5 6 6 4 5 8 10 9 9 9 9 8 7 5 3 2 2 2 3 3
6 6 8 9 8 10 10 12 12 14 13 13 12 12 10 10 11 11 11 10 10 9 8 8 7 7 6 6 5 7 8 10 9 11 13 11 9 7 5 4 3 4 4
7 8 8 8 9 10 12 12 11 10 11 10 13 13 11 10 9 9 9 9 7 7 8 7 9 9 8 7 6 5 5 7 12 12 16 13 11 11 9 7 6 5 5
8 7 7 9 10 11 11 12 13 15 15 14 13 13 12 9 9 8 8 10 9 8 9 10 8 9 9 8 8 7 7 5 7 5 16 15 12 10 11 11 10 8 6
6 7 7 8 10 12 13 14 16 17 19 18 17 15 13 10 8 9 7 8 10 9 10 9 8 10 10 9 9 7 7 9 6 3 9 14 15 14 15 15 14 12 10
5 6 8 8 10 10 10 11 12 13 14 16 17 16 14 12 11 8 9 10 10 11 12 11 10 11 9 8 6 5 5 5 9 10 5 3 5 14 22 20 17 14 13
3 5 9 8 7 7 8 9 11 13 14 15 18 19 15 11 11 11 9 9 10 11 11 11 11 11 8 8 5 6 6 4 4 4 4 5 7 9 11 21 22 17 15
6 8 6 6 6 8 10 12 17 20 20 19 19 18 17 14 13 10 10 11 11 9 11 11 12 12 11 9 9 10 11 10 9 6 6 5 5 6 9 10 24 21 19
8 8 6 7 8 11 15 16 18 21 24 23 21 18 14 12 13 16 12 10 13 12 8 11 13 12 13 13 13 13 13 14 13 11 9 8 7 5 5 5 9 19 20
8 7 4 4 8 12 15 16 19 19 26 24 13 14 15 11 9 12 14 15 12 14 13 9 12 14 14 14 16 15 15 14 13 14 11 9 8 8 8 6 7 11 13
7 5 1 5 11 15 16 16 15 24 22 24 23 18 14 10 9 10 11 13 16 15 14 14 13 13 16 17 16 17 19 21 20 16 14 11 10 9 8 9 10 10 10
3 2 3 6 11 13 15 15 16 19 25 27 26 25 17 12 10 8 10 13 13 16 18 16 15 18 21 22 21 19 19 21 22 19 16 16 14 14 14 11 13 13 12
4 2 4 9 11 11 12 15 17 20 24 26 27 26 24 17 17 17 15 14 15 16 14 15 18 19 25 27 25 23 20 21 23 22 21 19 20 18 16 16 16 17 17
3 2 6 8 11 13 14 15 17 22 25 27 25 25 26 21 17 15 19 20 23 23 16 13 16 17 20 27 25 25 27 25 20 22 23 26 28 26 25 23 20 20 20
5 4 4 8 9 8 11 15 19 21 24 26 26 26 25 24 19 20 21 19 20 22 21 20 19 19 19 22 26 25 26 28 29 28 25 28 29 30 29 28 28 27 27
5 5 5 6 5 8 9 18 21 24 25 26 24 26 29 25 23 22 21 21 22 24 26 26 27 19 16 15 18 25 27 28 30 34 37 37 36 36 36 35 37 36 33
6 6 4 3 4 8 11 17 21 25 24 25 27 27 27 27 27 27 27 27 26 24 26 29 29 31 27 23 16 13 21 27 32 34 34 36 36 37 40 41 40 39 38
10 9 6 3 5 8 10 15 18 22 24 26 28 31 30 29 30 31 30 30 31 30 29 30 30 31 32 33 30 28 22 19 24 28 33 39 39 38 38 40 39 39 38
14 12 8 6 5 7 11 16 17 21 23 27 29 32 35 31 30 30 33 32 33 34 32 30 29 31 33 36 37 38 37 34 34 30 30 34 39 40 38 34 33 30 31
18 15 11 12 13 11 15 16 20 23 26 28 31 35 37 35 34 34 34 35 33 36 35 33 33 33 34 34 36 38 41 43 44 46 39 37 39 45 46 46 47 44 41
23 24 23 19 18 15 15 19 23 26 30 33 36 40 44 43 40 37 36 35 36 37 37 35 37 39 40 40 40 41 42 45 50 50 46 41 40 44 49 53 59 61 61
27 27 25 23 21 20 21 23 26 26 31 34 40 46 46 45 42 40 36 36 36 34 37 40 40 37 42 46 48 49 48 50 50 51 53 48 48 46 49 48 54 58 47
30 30 27 26 25 25 24 26 28 30 33 34 39 44 48 42 38 37 36 34 35 36 38 40 42 46 48 50 53 55 52 52 53 52 56 55 53 49 46 43 44 46 46
34 34 32 28 27 26 25 29 33 33 34 36 40 43 47 41 34 37 39 40 39 41 42 43 45 49 49 55 59 57 54 54 52 52 56 56 52 52 47 45 43 44 45
35 33 33 31 28 28 30 37 40 26 39 35 39 41 44 41 40 41 44 46 47 45 46 51 49 51 51 54 53 52 49 50 48 50 49 50 49 49 47 47 45 46 47
32 33 32 34 36 31 35 34 38 41 43 41 41 42 46 47 42 41 44 47 46 49 49 50 50 53 53 54 57 64 46 42 44 46 47 46 44 45 42 40 42 44 45

GFSMA_500_spd_042.txt.gz
Wind_Speed
12 11 11 10 10 10 10 9 8 8 8 7 8 8 9 9 9 8 8 7 7 6 4 3 3 3 2 4 6 9 11 12 11 10 10 9 7 6 4 5 5 4 3
10 10 10 9 8 8 9 7 7 7 7 5 5 5 6 8 7 8 7 6 6 5 5 4 4 4 3 3 4 6 8 13 13 14 13 12 12 10 7 6 5 4 3
10 10 9 8 8 9 8 7 7 6 7 7 6 4 5 5 5 5 6 6 4 4 5 6 5 5 5 4 4 5 7 12 6 11 14 15 14 12 11 8 6 5 5
9 9 6 5 7 8 9 10 9 10 10 9 8 7 5 5 5 5 5 5 4 4 5 6 6 6 7 5 5 3 5 5 7 6 14 17 16 15 13 12 9 8 7
5 4 3 5 8 10 11 13 13 13 13 12 11 9 7 6 6 5 4 4 5 4 5 7 7 9 8 6 5 2 3 4 9 9 9 8 16 14 13 12 12 11 11
2 2 4 7 9 11 12 12 13 14 15 19 20 13 8 6 7 5 4 4 4 5 6 7 7 7 8 8 9 5 4 4 5 7 10 10 9 13 11 14 15 14 13
1 3 6 8 7 8 9 10 12 15 17 21 19 10 5 7 7 6 5 5 3 4 6 7 7 6 7 8 8 8 7 8 8 7 8 7 8 4 1 6 13 19 20
3 5 5 6 5 6 10 13 14 16 20 18 18 13 4 6 7 7 5 4 5 5 6 8 9 9 9 8 10 11 11 10 11 10 9 7 9 10 10 12 11 10 16
6 7 4 2 3 8 13 13 14 15 15 15 18 18 9 7 5 5 4 5 5 6 8 9 9 9 10 11 10 10 12 13 13 13 12 12 12 11 12 12 11 12 14
8 7 3 2 2 8 12 12 12 13 15 16 15 18 16 9 4 6 7 7 7 6 8 10 10 10 10 10 11 13 14 15 16 16 17 15 14 14 14 14 13 12 9
8 5 4 4 4 8 11 13 14 10 15 15 15 15 17 14 8 6 6 7 8 9 9 10 11 11 11 11 12 14 16 16 16 16 18 19 19 17 16 15 13 11 13
7 4 5 5 5 7 12 12 9 9 12 11 12 14 16 14 11 7 5 6 10 12 16 18 14 12 12 14 16 15 17 17 17 17 17 17 18 19 19 19 17 16 15
6 7 9 8 6 6 7 3 5 8 11 12 13 14 14 12 11 11 11 9 8 9 11 13 11 11 13 14 15 17 16 16 17 17 18 20 20 21 23 23 23 22 22
8 12 11 10 6 6 3 3 7 9 11 12 13 14 14 13 12 11 12 12 11 9 10 11 12 13 16 21 19 16 17 18 17 17 18 18 22 25 25 27 28 28 28
12 15 13 12 8 6 5 4 7 10 9 12 14 15 16 16 16 14 12 13 14 15 14 12 14 16 16 17 19 18 17 17 18 19 19 19 21 21 24 29 32 33 35
15 17 16 13 10 10 5 4 8 10 11 12 14 15 16 17 18 19 18 17 15 15 16 17 16 18 19 19 19 19 19 20 20 19 20 22 20 23 25 26 27 34 38
18 20 19 14 14 13 10 8 10 11 11 11 13 15 15 16 22 23 22 18 17 17 17 17 19 20 22 21 22 23 25 26 26 27 28 28 26 27 28 29 33 34 35
21 22 21 17 17 16 17 13 12 14 17 17 15 14 16 20 21 25 26 27 19 21 24 22 23 22 20 23 24 26 27 27 30 31 32 34 35 36 37 37 35 36 37
22 24 21 18 20 20 19 17 16 17 20 19 20 16 18 21 23 23 29 25 20 18 20 23 26 27 29 33 33 34 36 36 35 35 34 36 39 41 43 43 41 39 38
23 24 22 22 22 24 23 22 22 22 22 22 21 21 21 19 22 24 28 29 27 23 19 20 24 26 31 37 38 38 39 37 37 42 44 47 46 47 45 45 44 44 46
19 23 23 24 24 26 28 27 27 26 26 27 29 28 26 21 22 25 26 32 29 24 23 24 27 29 34 36 42 35 31 38 41 45 48 49 51 53 52 52 50 45 45
19 24 27 28 28 25 29 32 33 31 32 31 34 36 35 29 26 26 30 34 35 32 31 29 29 32 37 39 39 36 43 50 49 52 51 50 56 57 59 56 52 48 44
24 23 25 28 29 29 28 32 34 36 36 36 39 42 37 30 30 32 34 36 43 39 36 35 34 35 38 41 38 40 47 52 54 55 60 56 51 49 49 48 47 46 46
30 30 28 30 32 33 36 38 42 42 41 39 43 43 48 39 38 42 45 43 44 41 39 34 38 39 40 44 41 44 52 54 52 56 54 47 45 45 46 47 47 46 46
35 35 35 33 33 33 39 45 49 49 44 45 45 44 46 43 39 44 30 37 35 37 33 35 39 40 44 45 45 46 47 44 42 41 42 42 42 42 44 45 46 46 44
35 40 42 40 39 39 40 48 50 49 47 46 51 50 49 44 44 29 32 34 35 34 33 37 40 44 44 43 41 42 39 37 35 35 39 40 42 43 43 43 43 43 41

GFSMA_500_spd_045.txt.gz
Wind_Speed
13 12 11 10 10 7 5 6 5 5 5 5 7 7 7 6 4 4 5 5 5 4 2 2 2 2 2 3 4 6 8 11 13 12 11 11 10 8 6 7 7 5 4
12 11 9 9 8 7 6 6 6 7 7 7 7 7 8 8 6 5 5 6 5 4 5 4 4 3 3 5 5 5 7 8 13 13 14 13 13 11 10 8 7 6 6
10 9 8 8 7 7 8 7 6 6 6 7 9 9 7 8 6 6 6 6 4 5 5 6 5 4 5 6 6 7 10 5 5 8 13 14 15 14 13 11 8 7 7
8 7 8 9 10 10 8 8 8 7 7 8 8 8 10 9 8 6 5 6 5 4 4 5 5 6 5 4 5 7 8 10 7 13 13 16 15 16 15 14 12 10 8
6 6 8 9 9 8 9 10 8 11 11 12 13 8 6 8 8 7 5 4 5 4 4 4 5 4 5 4 5 5 6 8 10 13 17 5 11 17 16 14 15 15 13
2 4 6 7 6 6 8 10 11 11 14 15 14 10 3 2 5 6 7 5 5 5 5 5 4 5 6 6 6 4 4 6 9 11 11 14 8 9 17 11 13 13 14
1 3 4 4 3 4 9 12 14 16 16 17 15 10 2 1 4 5 5 5 5 5 5 6 7 7 6 6 6 6 6 7 7 7 7 8 9 9 6 15 12 12 19
1 3 3 1 2 3 9 13 14 16 14 14 15 15 7 3 2 3 5 5 6 5 4 6 7 8 8 7 8 8 8 8 10 9 7 7 7 7 9 11 11 13 15
4 5 4 3 1 5 10 13 15 13 14 13 13 14 12 8 3 1 2 4 5 6 5 7 8 8 8 8 8 8 9 9 10 11 10 10 10 11 11 12 13 14 16
7 7 5 5 4 5 9 13 13 11 13 11 10 11 12 10 6 4 2 2 3 4 7 9 11 9 9 9 9 12 14 13 13 14 14 13 12 13 14 14 15 14 13
8 7 7 5 5 6 8 9 9 8 10 10 9 10 11 10 8 6 5 5 6 8 8 13 14 10 8 9 12 16 16 17 17 17 17 18 19 17 16 16 16 15 14
9 7 8 6 5 6 7 5 5 6 10 9 10 11 9 8 8 7 7 7 6 8 9 8 8 8 8 9 11 14 16 15 14 15 17 18 19 20 20 19 20 21 20
8 9 10 8 7 6 3 2 4 7 8 9 11 13 11 10 8 8 8 7 6 5 6 8 10 9 8 8 12 13 14 16 16 15 14 14 16 17 21 22 23 25 26
9 10 12 9 7 6 4 3 4 8 9 9 10 12 12 10 8 8 7 6 6 5 7 7 7 9 12 14 15 15 14 16 19 19 19 19 19 19 20 22 25 28 29
11 11 13 12 9 7 7 7 5 7 10 10 11 10 9 9 11 11 10 9 9 10 10 10 10 11 12 14 15 15 16 16 18 20 23 23 25 25 25 26 27 29 33
14 13 16 15 13 11 9 9 5 7 9 11 13 12 8 7 9 12 15 14 11 9 11 13 14 16 17 18 17 18 19 20 20 21 23 24 26 28 32 32 34 33 33
18 17 17 18 16 15 13 13 9 8 10 13 14 14 14 13 13 12 13 16 15 12 12 15 16 17 17 16 18 22 23 24 27 29 31 33 32 33 33 34 37 38 38
23 21 20 21 20 18 17 16 16 15 15 15 16 18 17 16 17 14 14 14 15 18 19 16 15 15 17 19 21 25 28 29 33 34 35 35 36 38 40 39 39 41 43
20 22 22 23 21 20 19 19 18 20 19 19 19 22 21 23 23 24 21 18 17 21 23 25 24 21 21 22 23 25 27 33 37 37 35 37 40 41 43 44 43 44 44
15 19 22 24 23 22 20 21 20 22 23 24 23 25 29 28 28 29 20 19 20 24 25 26 28 28 30 28 27 29 31 35 40 39 37 41 42 47 54 53 49 47 49
13 14 20 25 25 23 22 23 23 25 27 29 30 29 31 35 33 36 42 23 24 28 32 36 38 34 33 32 34 36 35 38 40 41 45 49 52 56 55 54 54 48 47
14 15 16 19 24 24 25 25 27 27 29 32 30 31 34 37 37 40 46 25 29 35 42 39 42 38 35 33 38 39 37 40 45 45 46 54 57 59 58 55 48 47 47
21 17 19 21 21 24 27 29 32 33 32 34 35 36 38 40 42 41 46 37 31 39 46 39 40 39 36 34 40 40 41 45 46 48 50 51 53 49 45 44 45 46 47
25 26 25 26 27 26 27 30 35 41 39 39 42 43 42 46 47 49 55 40 37 36 42 39 41 37 36 38 41 42 45 44 46 47 46 42 40 39 41 42 43 44 44
31 31 27 29 31 33 34 34 37 41 42 43 46 50 49 51 51 56 50 39 38 38 37 38 37 37 37 40 43 43 44 44 43 41 38 36 40 41 43 44 45 46 45
42 42 40 34 32 34 38 42 46 47 49 49 48 52 55 57 60 56 54 50 39 45 41 35 38 37 38 41 41 42 41 39 36 34 35 37 39 41 44 44 44 46 46

GFSMA_500_spd_048.txt.gz
Wind_Speed
10 9 8 7 7 7 5 6 8 8 8 10 10 9 9 7 4 3 3 3 2 3 2 1 2 3 4 4 5 6 8 10 12 13 13 12 11 10 9 6 6 6 6
9 7 6 7 6 4 4 4 6 7 8 9 10 9 9 8 7 6 4 4 3 3 4 3 3 4 5 6 6 8 9 11 10 12 13 13 12 12 12 9 7 7 7
9 6 6 7 6 5 6 6 5 7 8 10 10 9 8 8 8 6 5 3 2 3 3 3 2 3 6 6 6 8 10 12 3 7 5 14 15 15 13 13 10 8 7
8 7 6 6 5 5 6 7 8 9 8 8 9 12 9 8 7 5 5 4 4 3 2 3 3 3 5 5 5 6 6 7 11 14 15 10 12 11 14 15 15 12 10
8 6 5 4 3 5 8 10 9 9 10 10 10 10 6 5 5 5 5 6 5 5 5 5 5 6 6 6 6 4 3 5 5 7 8 13 6 11 14 15 16 15 14
6 4 4 2 3 5 10 14 12 10 11 14 14 7 1 2 4 5 5 6 6 5 5 5 5 5 6 6 7 6 6 8 8 8 8 9 9 9 8 14 16 14 14
4 2 1 0 1 4 10 13 12 12 13 14 13 11 4 1 2 3 3 4 5 5 6 6 6 7 7 7 6 7 8 9 9 9 8 8 6 7 8 3 9 15 21
3 2 2 1 1 3 9 12 10 11 14 11 13 13 10 6 2 1 2 4 4 4 5 6 7 8 9 8 7 7 7 9 10 10 9 9 9 8 8 7 9 12 13
3 2 3 3 2 3 7 9 9 9 11 9 11 12 11 9 7 4 2 4 4 4 4 7 10 9 8 9 10 10 12 11 10 10 10 9 10 11 10 11 11 12 15
4 4 4 5 5 3 5 4 7 10 11 10 10 12 10 8 7 6 4 3 4 5 6 6 11 8 7 7 9 10 12 12 12 12 13 12 11 12 13 14 15 14 14
5 5 6 5 5 4 5 4 7 9 11 10 10 10 7 7 6 5 6 4 4 6 7 8 6 5 4 3 5 7 10 11 12 13 15 15 16 17 15 16 17 18 19
6 8 7 6 6 4 5 3 6 9 10 10 10 10 7 6 6 5 5 4 4 4 4 5 5 4 3 5 8 12 14 15 15 14 14 15 19 19 21 21 20 20 21
8 8 8 8 7 5 5 3 4 7 7 9 9 10 7 5 4 4 3 3 2 2 3 5 6 7 8 10 12 13 15 19 20 20 21 21 22 22 22 23 25 25 25
9 10 11 11 9 7 5 4 3 5 6 6 8 10 10 8 8 8 9 10 8 6 7 6 7 9 10 11 13 15 15 16 18 21 23 25 26 27 29 30 29 31 33
14 12 14 14 13 9 8 8 2 3 5 5 6 8 10 7 8 9 10 13 14 13 11 11 11 13 13 15 15 15 15 15 16 16 17 19 24 26 29 33 37 37 36
16 16 15 16 16 13 11 11 8 5 4 7 10 10 9 8 13 13 8 9 10 12 12 13 15 15 15 17 17 15 18 20 22 23 25 26 28 31 33 36 39 40 41
19 19 20 19 19 17 14 13 14 11 13 13 14 13 15 15 14 16 16 15 14 12 13 13 16 18 19 21 21 20 22 25 27 29 30 34 36 38 39 39 40 42 43
22 23 24 23 19 20 17 15 16 17 16 18 17 17 17 19 19 18 20 21 22 17 18 19 16 20 25 28 28 30 29 31 33 34 37 37 41 43 41 38 39 40 40
19 22 23 25 23 22 20 17 16 18 20 22 23 22 23 23 23 24 24 23 22 24 22 22 20 23 26 28 29 33 33 34 37 38 39 41 42 43 44 47 49 46 49
14 15 16 19 23 22 23 19 16 16 18 23 24 25 27 27 29 27 28 27 24 31 29 27 30 28 29 28 31 34 34 37 36 39 41 44 47 48 47 47 50 53 48
13 14 15 14 17 20 21 20 18 19 19 22 25 24 27 29 30 30 30 33 35 32 31 33 30 37 27 29 34 37 38 38 40 40 44 49 51 50 51 49 47 46 46
14 12 11 13 14 15 16 18 21 23 22 23 26 25 29 31 33 36 36 38 41 40 43 31 35 41 35 33 33 40 38 37 41 45 46 49 52 50 49 48 45 46 47
21 18 16 15 16 18 19 21 24 28 29 29 33 33 34 36 41 42 45 45 46 47 52 41 35 39 37 35 37 36 37 41 42 46 47 49 48 46 44 44 43 46 48
26 24 23 24 23 21 23 25 30 33 31 31 34 39 42 43 44 48 48 47 53 52 52 50 44 46 39 38 39 36 39 41 40 45 46 45 44 42 42 44 46 48 50
31 31 32 32 32 28 29 32 36 39 41 42 41 43 48 50 50 53 56 54 55 58 57 56 59 50 46 42 42 40 40 39 42 45 41 40 40 43 43 44 48 49 50
36 35 38 40 40 41 43 37 36 39 45 51 51 43 51 55 58 59 57 63 65 70 57 56 47 44 37 34 40 41 39 41 44 42 36 36 38 42 44 47 49 50 51